Regional Weather Roundup
Issued by NWS Wakefield, VA

Home | Current Version | Previous Version | Text Only | Print | Product List | Glossary Off
Versions: 1 2 3 4 5 6 7 8 9 10 11 12 13 14 15 16 17 18 19 20 21 22 23 24 25 26 27

000
ASUS41 KAKQ 162115
RWRAKQ

REGIONAL WEATHER ROUNDUP
NATIONAL WEATHER SERVICE WAKEFIELD VA
400 PM EST THU NOV 16 2017

Note: "fair" indicates few or no clouds below 12,000 feet with no
significant weather and/or obstructions to visibility. * = Denotes
station may not report precipitation (e.g., rain,snow,etc.),
thunder or fog.

VAZ042-051-052>054-056-162200-
NORTHERN VIRGINIA

CITY           SKY/WX    TMP DP  RH WIND       PRES   REMARKS
WASH NATIONAL  PTCLDY    60  34  37 NW14G25   29.93R
DULLES         PTCLDY    55  32  41 NW21G29   29.95R
FORT BELVOIR   CLEAR     60  33  35 NW16G23   29.92R
QUANTICO       PTCLDY    62  33  33 N17       29.93R
FREDERICKSBRG* CLEAR     64  36  36 W9G17     29.90R
STAFFORD*      CLEAR     62  30  30 NW13      29.95R
WARRENTON      NOT AVBL
CULPEPER*      CLEAR     61  29  29 NW12      29.93R
MANASSAS*      CLEAR     58  33  39 N16G23    29.95R
LEESBURG*      CLEAR     54  34  47 NW26G36   29.96R
WINCHESTER     CLEAR     48  32  53 W23       29.98R
FRONT ROYAL*   CLEAR     54  32  43 NW13G20   29.95R
LURAY*         CLEAR     55  32  41 NW13      29.94R
$$

VAZ048-049-060>072-079>083-162200-
CENTRAL AND SOUTH CENTRAL VIRGINIA

CITY           SKY/WX    TMP DP  RH WIND       PRES   REMARKS
RICHMOND       PTCLDY    64  32  30 W12G21    29.92R
CHESTERFIELD*  NOT AVBL
PETERSBURG*    CLEAR    N/A N/A N/A W5        29.93R
HANOVER        CLEAR     63  34  33 SW10      29.93R
TAPPAHANNOCK*    N/A    N/A N/A N/A MISG        N/A
QUINTON*       FAIR      63  34  33 W6G20     29.91R
CHARLOTTSVILLE CLEAR     63  25  23 NW7G22    29.92R
GORDONSVILLE*  CLEAR     62  27  26 NW8       29.92R
ORANGE*        CLEAR     61  30  31 W9G16     29.92R
LOUISA*        CLEAR     62  29  28 W6        29.96R
BUMPASS*       FAIR      62  33  33 W5        29.91R
FARMVILLE*     SUNNY     65  31  28 W6        29.93R
CREWE*         FAIR      63  32  31 W7        29.93R
FORT PICKETT*  NOT AVBL
CHASE CITY*    FAIR      64  31  29 W9G16     29.94S
CLARKSVILLE*   FAIR      64  32  29 W3        29.94S
SOUTH HILL*    SUNNY     64  37  37 W3        29.99S
LAWRENCEVILLE* FAIR      63  32  31 W7        29.94R
EMPORIA*       CLEAR     63  36  36 W5        29.95R
$$

VAZ088>098-162200-
SOUTHEAST VIRGINIA

CITY           SKY/WX    TMP DP  RH WIND       PRES   REMARKS
NORFOLK        CLEAR     64  40  41 VRB5      29.91R
VIRGINIA BEACH CLEAR     62  39  42 NW9       29.90R
NORFOLK NAVAL  CLEAR     64  40  41 NW12      29.93R
WEST POINT*    CLEAR     63  33  33 W7        29.93R
SALUDA*        FAIR      62  36  37 W8        29.91R
NEWPORT NEWS   CLEAR     63  35  35 W10       29.92R
LANGLEY AFB    CLEAR     63  38  40 W15       29.92R
FORT EUSTIS    CLEAR     62  39  43 NW13      29.89R
WILLIAMSBURG*  CLEAR     66  39  37 NW3G16    29.92R
HR EXEC AP*    NOT AVBL
FRANKLIN*      CLEAR     63  37  38 W9        29.93S
US460-WAKEFLD  CLEAR     64  40  41 W5        29.92R
$$

VAZ020-022-025-037-045-162200-
WEST CENTRAL AND SOUTHWEST VIRGINIA

CITY           SKY/WX    TMP DP  RH WIND       PRES   REMARKS
STAUNTON*      CLEAR     56  28  34 NW12      29.97R
WAYNESBORO*    CLEAR     56  27  32 W8        29.95R
HOT SPRINGS VA SUNNY     44  23  43 W20G28    29.97R
LYNCHBURG      SUNNY     61  25  25 VRB7      29.96R
DANVILLE       SUNNY     65  26  23 VRB7      29.96R
SOUTH BOSTON*  FAIR      65  25  21 W5        29.95S
MARTINSVILLE   SUNNY     64  24  22 NW6       30.00R
ROANOKE        SUNNY     60  28  29 W13       30.00R
BLACKSBURG     SUNNY     55  31  40 W10G18    30.03R
DUBLIN*        SUNNY     57  31  37 W13G18    30.03R
MARION*        SUNNY     55  21  25 W22G28    30.05R
HILLSVILLE*    SUNNY     55  23  28 NW15G22   30.00R
RICHLANDS*     FAIR      52 -28   3 NW14G21   30.07R
WISE*          SUNNY     54  34  47 NW5       30.10R
ABINGDON*      SUNNY     59  29  31 W10       30.06S
$$

MDZ021>025-VAZ099-100-162200-
SOUTHERN MARYLAND AND THE DELMARVA PENINSULA

CITY           SKY/WX    TMP DP  RH WIND       PRES   REMARKS
PATUXENT RIVER PTCLDY    60  37  42 W14       29.90R
BAY BRIDGE APT PTCLDY    59  36  41 NW15G24   29.90R
LEONARDTOWN    CLEAR     61  37  41 W10       29.92R
DOVER          PTCLDY    58  35  40 W14G23    29.86R
GEORGETOWN     PTCLDY    60  36  40 W9G18     29.89R
EASTON         PTCLDY    61  39  44 NW10      29.92R
CAMBRIDGE        N/A     61  39  44 W8        29.89R
SALISBURY      CLEAR     59  39  47 W9        29.89R
OCEAN CITY     CLEAR     59  42  53 NW7       29.89R
WALLOPS ISLAND CLEAR     59  40  49 NW9       29.91R
ACCOMACK*      CLEAR     60  45  58 NW7       29.91R
$$

NCZ012>017-030>032-162200-
NORTH CENTRAL AND EASTERN NORTH CAROLINA

CITY           SKY/WX    TMP DP  RH WIND       PRES   REMARKS
ROANOKE RAPIDS FAIR      63  37  39 CALM      29.94S
RALEIGH        MOSUNNY   66  32  28 VRB6      29.96S
ELIZABETH CITY CLEAR     64  44  48 W8        29.92R
AHOSKIE*       CLEAR     61  39  43 CALM      29.94S
EDENTON*       CLEAR     66  44  44 CALM      29.93S
CURRITUCK*     CLEAR     65  41  41 W6        29.92R
KILL DEVIL HLS CLEAR     60  45  57 CALM      29.91R
MANTEO         CLEAR     61  46  57 NW6       29.92S
CAPE HATTERAS  CLEAR     60  51  72 W6        29.92S
TARBORO*       NOT AVBL
GOLDSBORO      SUNNY     68  39  34 W10       29.94S
WASHINGTON     SUNNY     65  42  42 W5        29.94S
GREENVILLE     SUNNY     64  37  36 NW3       29.97R
NEW BERN       SUNNY     64  45  49 NW6       29.96R
WILMINGTON     SUNNY     67  44  43 NW9       29.97R
$$

VAZ048-162200-
ELSEWHERE

CITY           SKY/WX    TMP DP  RH WIND       PRES   REMARKS
HARRISBURG PA  CLOUDY    49  33  54 NW23G32   29.93R
BALTIMORE      PTCLDY    56  34  43 W18G30    29.91R
ANNAPOLIS      CLEAR     61  35  37 NW13G25   29.90R
ANDREWS AFB    CLEAR     58  32  37 NW20G26   29.90R
PHILADELPHIA   MOCLDY    57  28  33 W18G25    29.86R
HENDERSON NC   SUNNY     62  29  28 CALM      29.95R
GREENSBORO     MOSUNNY   66  24  20 NW14      29.97R
ROCKY MOUNT    SUNNY     65  39  38 W9        29.95R
$$

VAZ100-162200-
MARINE

STATION/POSITION TIME  TEMP    WIND        PRES    WAVE   SWELL
                       AIR SEA DIR/SP/G            HT/PER HT/PER
                 (UTC) (F)     (DEG/KT/KT) (MB)    (FT/S) (FT/S)
BRANDYWINE LGT   2048   59     290/ 21/ 26 1011.5R
CAPE MAY NJ      2048   56 54  300/ 10/ 13 1010.7R
LEWES DE         2048   59 54  280/ 10/ 16 1011.3R
15NM E FENWICK I 2050   60 60  280/ 19/ 23 1011.5R   4/10   3/10
OCEAN-CITY-INLET 2048   59 55  310/  7/  9 1012.4R
WACHAPREAGUE VA  2048   62 54  270/  3/  4 1012.4R
THOMAS POINT MD  2100   59 54  310/ 21/ 23   N/A
GOOSES REEF MD   2100   59 54  290/  8/ 10 1022.1    1/ 2
COVE POINT MD    2048   60     290/  9/ 17 1012.9R
SOLOMONS ISLAND  2048   60 56  230/ 11/ 16 1012.1R
BISHOPS HEAD MD  2048   56 51  280/ 11/ 12 1012.8R
PINEY POINT MD   2048          290/ 11/ 13   N/A
POTOMAC MD       2100   59 56  300/ 12/ 14 1012.0    1/ 2
CAMBRIDGE MD     2042   60 52              1012.9R
LEWISETTA VA     2048   61 51  290/ 10/ 13 1012.7R
RAPPAHANNOCK LGT 2048          280/  8/  9 1013.1R
STINGRAY PT      2100   60 56  330/  8/ 10 1013.0    0
YORK RVR RNG VA  2048   62     300/ 13/ 16 1013.0R
YORKTOWN VA      2048   63 56  290/ 10/ 12 1012.5R
JAMESTOWN VA     2100      56  320/  8/ 12   N/A     1
DOMINION TERM VA 2048   61     300/ 11/ 12 1013.0R
KIPTOPEKE VA     2048      55  280/  7/  7   N/A
CAPE HENRY VA    2048   62     280/ 10/ 13   N/A
WILLOUBY STN VA  2048   62     290/ 13/ 15 1012.9R
S CRANEY ISL VA  2048   64     280/  6/  9 1012.6R
CAPE HENRY BUOY  2100      61                N/A     3/11   2/11
1ST LANDING BUOY 2100   60 57  310/  8/ 10 1012.7    1/ 4
CAPE CHARLES BUO 2051      59                N/A     3/11   2/11
64NM E OF VA BCH 2050   60 62  310/ 14/ 19 1012.8    5/12   5/12
DUCK PIER NC     2048   61 58  260/  8/  9 1012.4R
44100 DUCK FRF   2045      63                N/A     4/11   2/11
44056 DUCK FRF   2100      59                N/A     3/12   2/12
OREGON INLET NC  2036   61 58  300/  7/ 10 1012.8S
HATTERAS NC      2048   59 60  270/ 10/ 11 1013.0S
DIAMOND SHLS NC  2100   61     300/ 10/ 12 1013.6
CAPE LOOKOUT NC  2100   63     230/  3/  4 1014.3R
$$




USA.gov is the U.S. government's official web portal to all federal, state and local government web resources and services.